星链-5163 (STARLINK-5163 )

导读 | 豆包AI

STARLINK-5163是美国太空探索技术公司星链互联网卫星星座的一员,于2022年10月20日发射入轨。星链星座旨在为全球提供高速低延迟卫星互联网服务,该卫星承担星座组网任务,运行于近地轨道,持续为偏远地区、移动载体等提供互联网接入服务,是星链全球组网进程中的组成单元。

基本信息
目录编号:
54054
目录名称:
STARLINK-5163
国际标识:
2022-136D
轨道中心:
EARTH
卫星名称:
星链-5163
卫星全名:
星链-5163 (STARLINK-5163 )
卫星状态:
在轨 (已飞行1242 天)
发射日期:
2022-10-20 UTC
国别 :
美国 (US)
星等 :
--
轨道信息
数据来源 国际轨道数据
星历时间: 2026-03-15T06:22:49+0800
11小时前
查看轨道信息
半长轴: 6918.117km
偏心率: 0.0001678
轨道倾角: 53.220°
近地点辐角 92.720°
升交点赤经 320.713°
平近点角 267.399°
近地点: 538.819km
远地点: 541.141km
周期: 95.442分钟
每日圈数: 15.087629
详细信息
固有亮度:
5
最大亮度:
2.5
卫星平台:
Starlink v1.5
覆盖范围:
全球
运营商:
太空探索技术公司
运营商所在国:
美国
制造商(研发单位):
太空探索技术公司
制造商所在国:
美国
使用方式:
暂无
卫星简介
星链(Starlink)计划是由太空探索技术公司(SpaceX)提出的一个巨型低轨卫星互联网星座项目,计划在2019年至2024年间在太空搭建由约1.2万颗卫星组成的“星链”网络,其中1584颗将部署在地球上空550千米处的近地轨道,并从2020年开始工作。该卫星仍在工作。
2D轨道图
3D轨道图
轨道高度分析图
轨道倾角分析图
轨道综合分析图
查看轨道综合分析图